GW2428 Weather Reports


time (UTC)temp
C
wind
direction
speed
KPH
gust
KPH
rain 1hr
cm
rain 24hr
cm
rain mn
cm
humidity
%
barometer
mb
20260906060430 16 225 0.0 0.0 0.00 0.00 0.00 93 1021.9
20260906054529 16 225 0.0 0.0 0.00 0.00 0.00 94 1022.2
20260906045529 16 225 0.0 0.0 0.00 0.00 0.00 92 1022.4
20260906044529 16 225 0.0 0.0 0.00 0.00 0.00 93 1022.4
20260906043531 16 225 0.0 0.0 0.00 0.00 0.00 92 1022.5
20260906042529 16 225 0.0 0.0 0.00 0.00 0.00 91 1022.5
20260906040529 17 225 0.0 0.0 0.00 0.00 0.00 92 1022.6
20260906035612 17 225 0.0 0.0 0.00 0.00 0.00 91 1022.7
20260906034613 17 225 0.0 0.0 0.00 0.00 0.00 92 1022.8
20260906033610 17 225 0.0 0.0 0.00 0.00 0.00 91 1022.9
20260906032627 17 225 0.0 0.0 0.00 0.00 0.00 91 1022.9
20260906031710 17 225 0.0 0.0 0.00 0.00 0.00 91 1022.9
20260906030713 17 225 0.0 0.0 0.00 0.00 0.00 93 1023.0
20260906025712 17 225 0.0 0.0 0.00 0.00 0.00 93 1022.8
20260906024727 17 225 0.0 0.0 0.00 0.00 0.00 92 1022.7
20260906023809 17 225 0.0 0.0 0.00 0.00 0.00 90 1022.6
20260906022811 17 225 0.0 0.0 0.00 0.00 0.00 90 1022.5
20260906021813 18 225 0.0 0.0 0.00 0.00 0.00 90 1022.5
20260906020909 18 225 0.0 0.0 0.00 0.00 0.00 90 1022.4
20260906015911 18 225 0.0 0.0 0.00 0.00 0.00 89 1022.6
20260906014913 18 225 0.0 0.0 0.00 0.00 0.00 90 1022.5
20260906014011 18 225 0.0 0.0 0.00 0.00 0.00 90 1022.6
20260906013011 18 225 0.0 0.0 0.00 0.00 0.00 89 1022.5
20260906012011 18 225 0.0 0.0 0.00 0.00 0.00 89 1022.3
20260906011110 19 225 0.0 0.0 0.00 0.00 0.00 86 1022.1
20260906010110 19 225 0.0 0.0 0.00 0.00 0.00 87 1022.1
20260906005111 19 225 0.0 0.0 0.00 0.00 0.00 86 1021.7
20260906004211 19 337 0.0 0.0 0.00 0.00 0.00 86 1021.7
20260906003210 20 337 0.0 0.0 0.00 0.00 0.00 85 1021.7
20260906002211 20 337 0.0 0.0 0.00 0.00 0.00 85 1021.6
20260906001211 20 337 0.0 0.0 0.00 0.00 0.00 83 1021.6
20260906000311 20 337 0.0 0.0 0.00 0.00 0.00 83 1021.3
20260905235311 20 22 0.0 0.0 0.00 0.00 0.00 82 1021.2
20260905233412 21 343 1.6 6.4 0.00 0.00 0.00 79 1021.4
20260905232510 21 342 0.0 0.0 0.00 0.00 0.00 80 1021.3
20260905231512 21 360 0.0 1.6 0.00 0.00 0.00 78 1021.2
20260905230511 22 22 0.0 6.4 0.00 0.00 0.00 78 1021.3
20260905225608 22 45 0.0 0.0 0.00 0.00 0.00 78 1021.3
20260905224610 22 247 0.0 0.0 0.00 0.00 0.00 76 1021.2
20260905223612 22 247 0.0 0.0 0.00 0.00 0.00 76 1021.4
20260905222709 23 180 0.0 0.0 0.00 0.00 0.00 75 1021.2
20260905221713 23 202 0.0 0.0 0.00 0.00 0.00 72 1021.3
20260905220711 23 193 0.0 0.0 0.00 0.00 0.00 72 1021.3
20260905215727 23 165 1.6 6.4 0.00 0.00 0.00 72 1021.3
20260905214712 24 112 0.0 0.0 0.00 0.00 0.00 70 1021.2
20260905213810 24 270 0.0 0.0 0.00 0.00 0.00 70 1021.2
20260905212809 24 202 0.0 1.6 0.00 0.00 0.00 70 1021.3
20260905210910 25 147 1.6 4.8 0.00 0.00 0.00 66 1021.3
20260905205912 26 211 1.6 6.4 0.00 0.00 0.00 63 1021.3
20260905205810 26 140 3.2 8.0 0.00 0.00 0.00 64 1021.3
20260905204908 26 202 0.0 0.0 0.00 0.00 0.00 63 1021.3
20260905203909 27 225 0.0 0.0 0.00 0.00 0.00 62 1021.4
20260905202910 27 176 0.0 0.0 0.00 0.00 0.00 61 1021.2
20260905202811 27 157 0.0 0.0 0.00 0.00 0.00 61 1021.3
20260905201909 27 157 0.0 0.0 0.00 0.00 0.00 59 1021.2
20260905200909 26 225 0.0 0.0 0.00 0.00 0.00 63 1021.3
20260905195912 26 180 0.0 1.6 0.00 0.00 0.00 63 1021.3
20260905194910 25 157 1.6 3.2 0.00 0.00 0.00 69 1021.3
20260905194808 25 238 0.0 1.6 0.00 0.00 0.00 69 1021.3
20260905193811 22 157 0.0 3.2 0.00 0.00 0.00 76 1021.5
20260905192909 21 136 0.0 1.6 0.00 0.00 0.00 77 1021.8
20260905190910 21 135 1.6 1.6 0.00 0.00 0.00 77 1022.0
20260905185911 20 120 1.6 6.4 0.00 0.00 0.00 76 1022.0
20260905184912 20 193 1.6 3.2 0.00 0.00 0.00 79 1022.0
20260905183910 20 180 0.0 0.0 0.00 0.00 0.00 79 1021.8
20260905181012 19 247 0.0 0.0 0.00 0.00 0.00 79 1022.8
20260905180009 20 22 0.0 0.0 0.00 0.00 0.00 78 1022.9
20260905175009 20 225 0.0 0.0 0.00 0.00 0.00 75 1023.3
20260905174010 21 180 0.0 0.0 0.00 0.00 0.00 70 1023.8
20260905173011 22 157 0.0 1.6 0.00 0.00 0.00 66 1024.1
20260905172008 23 304 0.0 3.2 0.00 0.00 0.00 68 1024.0
20260905171009 24 147 3.2 4.8 0.00 0.00 0.00 70 1024.2
20260905170010 25 270 0.0 3.2 0.00 0.00 0.00 72 1024.2
20260905165013 25 273 0.0 1.6 0.00 0.00 0.00 70 1024.2
20260905164009 26 202 0.0 0.0 0.00 0.00 0.00 70 1024.0
20260905163012 26 172 1.6 3.2 0.00 0.00 0.00 69 1024.2
20260905162110 26 353 0.0 1.6 0.00 0.00 0.00 69 1024.1
20260905161109 26 42 0.0 1.6 0.00 0.00 0.00 72 1023.8
20260905160108 26 45 0.0 0.0 0.00 0.00 0.00 72 1024.0
20260905155112 26 179 1.6 3.2 0.00 0.00 0.00 71 1024.4
20260905154110 26 135 0.0 1.6 0.00 0.00 0.00 68 1024.4
20260905153209 27 266 0.0 3.2 0.00 0.00 0.00 68 1024.3
20260905152211 27 49 3.2 8.0 0.00 0.00 0.00 69 1024.0
20260905151212 26 102 3.2 3.2 0.00 0.00 0.00 71 1023.6
20260905150210 25 180 0.0 1.6 0.00 0.00 0.00 75 1023.7
20260905145208 24 180 1.6 1.6 0.00 0.00 0.00 77 1023.4
20260905144210 24 175 1.6 1.6 0.00 0.00 0.00 78 1023.7
20260905143211 23 135 0.0 1.6 0.00 0.00 0.00 77 1023.9
20260905142308 23 273 0.0 0.0 0.00 0.00 0.00 76 1023.8
20260905141310 23 41 3.2 11.3 0.00 0.00 0.00 78 1023.6
20260905140409 23 91 4.8 6.4 0.00 0.00 0.00 78 1023.6
20260905135409 23 157 1.6 1.6 0.00 0.00 0.00 80 1023.7
20260905134410 22 157 0.0 1.6 0.00 0.00 0.00 81 1023.7
20260905133408 22 180 0.0 1.6 0.00 0.00 0.00 82 1023.8
20260905132411 22 180 1.6 3.2 0.00 0.00 0.00 83 1023.9
20260905125410 21 157 0.0 1.6 0.00 0.00 0.00 87 1024.0
20260905124410 21 247 0.0 0.0 0.00 0.00 0.00 88 1024.1
20260905123411 20 247 0.0 0.0 0.00 0.00 0.00 88 1024.1
20260905122410 20 292 0.0 0.0 0.00 0.00 0.00 89 1024.1
20260905121411 20 360 0.0 0.0 0.00 0.00 0.00 90 1024.1
20260905120509 20 247 0.0 0.0 0.00 0.00 0.00 89 1024.0
20260905115608 20 292 0.0 0.0 0.00 0.00 0.00 90 1023.8
20260905114610 20 292 0.0 0.0 0.00 0.00 0.00 89 1023.8
20260905113625 20 315 0.0 0.0 0.00 0.00 0.00 89 1023.8
20260905113508 20 315 0.0 0.0 0.00 0.00 0.00 90 1023.8
20260905111609 20 315 0.0 0.0 0.00 0.00 0.00 89 1023.6
20260905110609 20 315 0.0 0.0 0.00 0.00 0.00 89 1023.5
20260905105709 20 315 0.0 0.0 0.00 0.00 0.00 89 1023.5
20260905104709 20 315 0.0 0.0 0.00 0.00 0.00 89 1023.5
20260905103710 20 315 0.0 1.6 0.00 0.00 0.00 89 1023.4
20260905102711 20 315 0.0 0.0 0.00 0.00 0.00 88 1023.3
20260905101708 20 315 0.0 0.0 0.00 0.00 0.00 89 1023.2
20260905100709 20 315 0.0 1.6 0.00 0.00 0.00 87 1023.4
20260905095710 20 315 0.0 1.6 0.00 0.00 0.00 87 1023.1
20260905094808 20 315 0.0 0.0 0.00 0.00 0.00 88 1023.2
20260905093809 20 315 0.0 0.0 0.00 0.00 0.00 88 1022.9
20260905092907 20 315 0.0 0.0 0.00 0.00 0.00 87 1023.0
20260905091911 20 315 0.0 0.0 0.00 0.00 0.00 88 1022.9
20260905090911 20 315 0.0 0.0 0.00 0.00 0.00 87 1022.9
20260905090009 20 360 0.0 0.0 0.00 0.00 0.00 87 1023.1
20260905085009 20 291 0.0 0.0 0.00 0.00 0.00 88 1023.1
20260905084011 20 292 0.0 0.0 0.00 0.00 0.00 88 1023.4
20260905083011 20 308 0.0 0.0 0.00 0.00 0.00 88 1023.4
20260905082010 20 337 0.0 0.0 0.00 0.00 0.00 88 1023.4
20260905081009 20 337 0.0 0.0 0.00 0.00 0.00 88 1023.5
20260905080009 20 337 0.0 0.0 0.00 0.00 0.00 88 1023.7
20260905075107 20 337 0.0 0.0 0.00 0.00 0.00 88 1023.8
20260905074110 20 337 0.0 0.0 0.00 0.00 0.00 88 1023.9
20260905073108 20 337 0.0 0.0 0.00 0.00 0.00 89 1023.9
20260905073009 20 337 0.0 0.0 0.00 0.00 0.00 88 1023.8
20260905072108 20 337 0.0 0.0 0.00 0.00 0.00 89 1023.9
20260905071109 20 337 0.0 0.0 0.00 0.00 0.00 88 1024.1
20260905070108 20 337 0.0 0.0 0.00 0.00 0.00 89 1024.1
20260905065112 19 337 0.0 1.6 0.00 0.00 0.00 91 1024.3
20260905062208 18 337 0.0 0.0 0.00 0.00 0.00 93 1024.7
20260905061210 18 337 0.0 0.0 0.00 0.00 0.00 94 1024.8